Radioactive Concentration measured by Seawater Radiation Monitor near Fukushima Daiichi Nuclear Power Station
Date,Time,Cs137(Bq/L),Cs134(Bq/L),Total β(Bq/L)
2019/10/30,00:00,0.79,ND,ND
2019/10/30,00:10,0.79,ND,ND
2019/10/30,00:20,0.79,ND,ND
2019/10/30,00:30,0.77,ND,ND
2019/10/30,00:40,0.78,ND,ND
2019/10/30,00:50,0.78,ND,ND
2019/10/30,01:00,0.78,ND,ND
2019/10/30,01:10,0.79,ND,ND
2019/10/30,01:20,0.78,ND,ND
2019/10/30,01:30,0.78,ND,ND
2019/10/30,01:40,0.77,ND,ND
2019/10/30,01:50,0.72,ND,ND
2019/10/30,02:00,0.72,ND,ND
2019/10/30,02:10,0.70,ND,ND
2019/10/30,02:20,0.76,ND,ND
2019/10/30,02:30,0.76,ND,ND
2019/10/30,02:40,0.76,ND,ND
2019/10/30,02:50,0.78,ND,10
2019/10/30,03:00,0.78,ND,11
2019/10/30,03:10,0.78,ND,12
2019/10/30,03:20,0.79,ND,10
2019/10/30,03:30,0.82,ND,9.7
2019/10/30,03:40,0.82,ND,9.9
2019/10/30,03:50,0.82,ND,ND
2019/10/30,04:00,0.84,ND,ND
2019/10/30,04:10,0.86,ND,ND
2019/10/30,04:20,0.85,ND,-
2019/10/30,04:30,0.85,ND,-
2019/10/30,04:40,0.84,ND,-
2019/10/30,04:50,0.84,ND,-
2019/10/30,05:00,0.84,ND,-
2019/10/30,05:10,0.83,ND,-
2019/10/30,05:20,0.84,ND,-
2019/10/30,05:30,0.83,ND,-
2019/10/30,05:40,0.84,ND,-
2019/10/30,05:50,0.83,ND,-
2019/10/30,06:00,0.82,ND,-
2019/10/30,06:10,0.82,ND,-
2019/10/30,06:20,0.83,ND,-
2019/10/30,06:30,0.81,ND,-
2019/10/30,06:40,0.82,ND,-
2019/10/30,06:50,0.82,ND,-
2019/10/30,07:00,0.82,ND,-
2019/10/30,07:10,0.82,ND,-
2019/10/30,07:20,0.77,ND,-
2019/10/30,07:30,0.78,ND,-
2019/10/30,07:40,0.76,ND,-
2019/10/30,07:50,0.76,ND,-
2019/10/30,08:00,0.77,ND,-
2019/10/30,08:10,0.76,ND,-
2019/10/30,08:20,0.76,ND,-
2019/10/30,08:30,0.76,ND,-
2019/10/30,08:40,0.78,ND,-
2019/10/30,08:50,0.85,ND,-
2019/10/30,09:00,0.84,ND,-
2019/10/30,09:10,0.84,ND,-
2019/10/30,09:20,0.85,ND,-
2019/10/30,09:30,0.88,ND,-
2019/10/30,09:40,0.84,ND,-
2019/10/30,09:50,0.82,ND,-
2019/10/30,10:00,0.84,ND,-
2019/10/30,10:10,0.85,ND,-
2019/10/30,10:20,0.90,ND,-
2019/10/30,10:30,0.90,ND,-
2019/10/30,10:40,-,-,-
2019/10/30,10:50,-,-,-
2019/10/30,11:00,-,-,-
2019/10/30,11:10,-,-,-
2019/10/30,11:20,-,-,-
2019/10/30,11:30,-,-,-
2019/10/30,11:40,-,-,-
2019/10/30,11:50,-,-,-
2019/10/30,12:00,-,-,-
2019/10/30,12:10,0.87,ND,ND
2019/10/30,12:20,0.90,ND,ND
2019/10/30,12:30,0.84,ND,ND
2019/10/30,12:40,0.84,ND,ND
2019/10/30,12:50,0.82,ND,9.2
2019/10/30,13:00,0.86,ND,ND
2019/10/30,13:10,0.82,ND,ND
2019/10/30,13:20,0.87,ND,9.3
2019/10/30,13:30,0.89,ND,9.7
2019/10/30,13:40,0.89,ND,ND
2019/10/30,13:50,0.84,ND,9.0
2019/10/30,14:00,0.84,ND,11
2019/10/30,14:10,0.85,ND,ND
2019/10/30,14:20,0.83,ND,ND
2019/10/30,14:30,0.79,ND,ND
2019/10/30,14:40,0.86,ND,ND
2019/10/30,14:50,0.87,ND,ND
2019/10/30,15:00,0.88,ND,ND
2019/10/30,15:10,0.86,ND,ND
2019/10/30,15:20,0.93,ND,ND
2019/10/30,15:30,0.87,ND,ND
2019/10/30,15:40,0.85,ND,9.0
2019/10/30,15:50,0.92,ND,ND
2019/10/30,16:00,0.92,ND,ND
2019/10/30,16:10,0.92,ND,ND
2019/10/30,16:20,0.93,ND,ND
2019/10/30,16:30,0.96,ND,ND
2019/10/30,16:40,0.97,ND,ND
2019/10/30,16:50,0.97,ND,ND
2019/10/30,17:00,0.99,ND,ND
2019/10/30,17:10,0.99,ND,ND
2019/10/30,17:20,0.99,ND,ND
2019/10/30,17:30,0.95,ND,ND
2019/10/30,17:40,0.95,ND,ND
2019/10/30,17:50,0.98,ND,ND
2019/10/30,18:00,0.96,ND,ND
2019/10/30,18:10,0.96,ND,ND
2019/10/30,18:20,0.95,ND,ND
2019/10/30,18:30,0.95,ND,ND
2019/10/30,18:40,0.96,ND,ND
2019/10/30,18:50,0.91,ND,ND
2019/10/30,19:00,0.90,ND,ND
2019/10/30,19:10,0.90,ND,ND
2019/10/30,19:20,0.88,ND,ND
2019/10/30,19:30,0.86,ND,ND
2019/10/30,19:40,0.85,ND,ND
2019/10/30,19:50,0.84,ND,ND
2019/10/30,20:00,0.76,ND,ND
2019/10/30,20:10,0.78,ND,ND
2019/10/30,20:20,0.73,ND,ND
2019/10/30,20:30,0.72,ND,ND
2019/10/30,20:40,0.72,ND,ND
2019/10/30,20:50,0.71,ND,ND
2019/10/30,21:00,0.72,ND,ND
2019/10/30,21:10,0.72,ND,ND
2019/10/30,21:20,0.73,ND,ND
2019/10/30,21:30,0.72,ND,ND
2019/10/30,21:40,0.73,ND,ND
2019/10/30,21:50,0.76,ND,ND
2019/10/30,22:00,0.74,ND,ND
2019/10/30,22:10,0.76,ND,ND
2019/10/30,22:20,0.78,ND,ND
2019/10/30,22:30,0.74,ND,ND
2019/10/30,22:40,0.73,ND,ND
2019/10/30,22:50,0.71,ND,ND
2019/10/30,23:00,0.71,ND,ND
2019/10/30,23:10,0.70,ND,ND
2019/10/30,23:20,0.73,ND,ND
2019/10/30,23:30,0.73,ND,ND
2019/10/30,23:40,0.74,ND,ND
2019/10/30,23:50,0.73,ND,ND
